User: anonymous   Login
Location: Unspecified
(0.0000°N, 0.0000°E)
Time: 10:35:30
(UTC+00:00)
Language:

YUBILEINY - Orbit

View from above orbital plane
View from above orbital plane
View from above satellite
View from above satellite

Ground track
Ground track

The orbit data is extracted from the following two-line orbital elements,

1 32953U 08025A   18021.63813562  .00000032  00000-0  15555-3 0  9992
2 32953  82.5035 103.8281 0019846 166.9224 193.2374 12.43081068438566
Epoch (UTC): 21 January 2018 15:18:54
Eccentricity: 0.0019846
inclination: 82.5035°
perigee height: 1478 km
apogee height: 1509 km
right ascension of ascending node: 103.8281°
argument of perigee: 166.9224°
revolutions per day: 12.43081068
mean anomaly at epoch: 193.2374°
orbit number at epoch: 43856

The dashed part of the orbit path shows where the satellite is in the earth's shadow,  

DLR